TimeCST,TemperatureF,Dew PointF,Humidity,Sea Level PressureIn,VisibilityMPH,Wind Direction,Wind SpeedMPH,Gust SpeedMPH,PrecipitationIn,Events,Conditions,WindDirDegrees,DateUTC
12:53 AM,3.0,-2.0,80,29.93,10.0,South,5.8,-,N/A,,Clear,180,2013-12-21 06:53:00
1:53 AM,-0.0,-5.1,79,29.92,10.0,SSE,4.6,-,N/A,,Scattered Clouds,150,2013-12-21 07:53:00
2:53 AM,-2.0,-7.1,79,29.93,10.0,SE,3.5,-,N/A,,Clear,130,2013-12-21 08:53:00
3:53 AM,-4.0,-9.0,79,29.94,10.0,SSE,3.5,-,N/A,,Clear,150,2013-12-21 09:53:00
4:53 AM,-4.0,-9.0,79,29.95,10.0,Calm,Calm,-,N/A,,Clear,0,2013-12-21 10:53:00
5:53 AM,-8.0,-11.9,83,29.96,10.0,Calm,Calm,-,N/A,,Clear,0,2013-12-21 11:53:00
6:53 AM,-8.0,-11.9,83,30.00,5.0,NW,4.6,-,N/A,,Partly Cloudy,320,2013-12-21 12:53:00
7:08 AM,-9.4,-14.8,77,29.92,8.0,Calm,Calm,-,N/A,,Mostly Cloudy,0,2013-12-21 13:08:00
7:43 AM,-9.4,-14.8,77,29.94,5.0,North,8.1,-,N/A,,Haze,350,2013-12-21 13:43:00
7:53 AM,-11.9,-16.1,82,30.03,9.0,North,6.9,-,N/A,,Partly Cloudy,10,2013-12-21 13:53:00
8:53 AM,-9.9,-16.1,74,30.07,7.0,North,6.9,-,N/A,,Scattered Clouds,350,2013-12-21 14:53:00
9:08 AM,-9.4,-14.8,77,29.99,4.0,North,6.9,-,N/A,,Haze,350,2013-12-21 15:08:00
9:53 AM,-7.1,-13.0,75,30.11,4.0,NNW,4.6,-,N/A,,Haze,330,2013-12-21 15:53:00
10:53 AM,-5.1,-11.0,76,30.12,5.0,NNW,8.1,-,N/A,,Haze,340,2013-12-21 16:53:00
11:53 AM,-2.9,-9.9,72,30.12,4.0,NNW,13.8,-,N/A,,Haze,340,2013-12-21 17:53:00
12:00 PM,-2.2,-9.4,71,30.04,6.0,NNW,11.5,-,N/A,,Haze,340,2013-12-21 18:00:00
12:53 PM,-2.0,-8.0,76,30.11,10.0,North,10.4,-,N/A,,Scattered Clouds,350,2013-12-21 18:53:00
1:18 PM,-2.2,-9.4,71,30.04,7.0,NNW,13.8,-,N/A,,Mostly Cloudy,340,2013-12-21 19:18:00
1:38 PM,-2.2,-9.4,71,30.05,8.0,NNW,15.0,-,N/A,,Mostly Cloudy,330,2013-12-21 19:38:00
1:51 PM,-2.2,-9.4,71,30.06,10.0,NNW,10.4,-,N/A,,Mostly Cloudy,340,2013-12-21 19:51:00
1:53 PM,-2.0,-9.0,72,30.15,9.0,NNW,12.7,-,N/A,,Scattered Clouds,340,2013-12-21 19:53:00
2:53 PM,-2.9,-9.0,75,30.15,4.0,North,9.2,-,0.00,Snow,Light Snow,360,2013-12-21 20:53:00
2:55 PM,-2.2,-9.4,71,30.07,4.0,North,9.2,-,N/A,,Haze,350,2013-12-21 20:55:00
3:53 PM,-2.9,-9.0,75,30.20,10.0,North,6.9,-,N/A,,Scattered Clouds,350,2013-12-21 21:53:00
4:53 PM,-2.0,-8.0,76,30.21,10.0,North,10.4,-,N/A,,Overcast,360,2013-12-21 22:53:00
5:53 PM,-2.9,-9.0,75,30.17,10.0,North,11.5,-,N/A,,Overcast,360,2013-12-21 23:53:00
6:53 PM,-5.1,-11.0,76,30.21,10.0,North,9.2,-,N/A,,Partly Cloudy,360,2013-12-22 00:53:00
7:53 PM,-6.0,-11.9,75,30.24,10.0,NNW,9.2,-,N/A,,Clear,330,2013-12-22 01:53:00
8:53 PM,-6.0,-11.9,75,30.24,10.0,North,11.5,-,N/A,,Clear,350,2013-12-22 02:53:00
9:53 PM,-5.1,-11.0,76,30.23,10.0,NNW,11.5,-,N/A,,Partly Cloudy,340,2013-12-22 03:53:00
10:53 PM,-5.1,-11.0,76,30.20,10.0,North,12.7,-,N/A,,Partly Cloudy,350,2013-12-22 04:53:00
11:53 PM,-5.1,-11.0,76,30.21,10.0,NNW,12.7,-,N/A,,Mostly Cloudy,340,2013-12-22 05:53:00